www.pogodaiklimat.ru

Погода и климат >> Архив погоды >> Россия >> Краснодарский край >> Геленджик


АРХИВ ПОГОДЫ в Геленджике

Время (UTC), дата Ветер
(напр.,м/с)
 
Видим.   Явления Облачность Т
(С)
Тd
(С)
f
(%)
Тe
(С)
Тes
(С)
Комфортность P
(гПа)
Po
(гПа)
Тmin
(С)
Tmax
(С)
R
(мм)
R24
(мм)
S
(см)
18 19.04 Ю 1 10 км слабый ливневой дождь 10/10 200 м
[Frnb]
+13.0 +12.2 95 +13 +13 тепло 1011.1 1009.2
21 19.04 В 1 10 км {ливн. осадки} 10/10 300 м
[Cb cap]
+12.0 +11.2 95 +12 +12 тепло 1009.9 1008.0
00 20.04 В 1 10 км слабый ливневой дождь {гроза} 10/10 300 м
[Cb cap]
+9.6 +8.7 94 +9 +9 по сезону 1008.2 1006.2
03 20.04 штиль 0 50 км {ливн. осадки} 4/3 600 м
[Sc Ac trans Ci fib]
+9.3 +8.7 96 +8 +8 по сезону 1007.6 1005.6 +8.6 30
06 20.04 З 2 50 км {ливн. осадки} 8/6 600 м
[Sc diur, vesp Ac trans Cc]
+13.4 +8.8 74 +13 +15 тепло 1008.1 1006.2
09 20.04 З 4 50 км 10/10 600 м
[Cb calv]
+12.6 +7.4 71 +11 +11 по сезону 1009.3 1007.4
12 20.04 З 1 50 км {ливн. осадки} 10/10 600 м
[Cb cap]
+12.8 +7.1 68 +13 +13 по сезону 1010.5 1008.6
15 20.04 З 1 50 км 10/10 600 м
[Cb cap]
+13.1 +6.3 63 +13 +13 тепло 1011.3 1009.4 +14.9 0.0
18 20.04 ЮЗ 1 10 км 6/3 600 м
[Sc diur, vesp Ac trans Cc]
+10.7 +5.8 72 +11 +11 по сезону 1013.2 1011.2
21 20.04 ЮВ 1 10 км ясно +9.0 +5.6 79 +8 +8 по сезону 1013.8 1011.8
00 21.04 Ю 1 10 км 6/3 600 м
[Sc Cc]
+10.1 +6.8 80 +10 +10 тепло 1013.5 1011.5
03 21.04 ЮЗ 2 20 км 10/10 600 м
[Cb cap]
+11.2 +6.4 72 +10 +10 по сезону 1014.3 1012.3 +7.9
06 21.04 З 1 50 км 8/8 600 м
[Cu Sc]
+12.9 +7.0 67 +13 +15 тепло 1015.3 1013.3
09 21.04 ЮВ 3 50 км 8/8 600 м
[Sc diur, vesp]
+17.0 +5.5 47 +17 +20 тепло 1015.2 1013.3
12 21.04 ЮЗ 2 50 км 10/10 600 м
[Sc]
+16.6 +4.0 43 +17 +17 тепло 1014.8 1012.9
15 21.04 З 1 50 км 6/6 600 м
[Sc]
+15.1 +7.0 58 +16 +16 тепло 1014.4 1012.5 +19.4
18 21.04 штиль 0 10 км ясно +11.0 +5.3 68 +11 +11 по сезону 1015.3 1013.3
21 21.04 В 2 10 км ясно +10.9 +6.2 73 +10 +10 по сезону 1015.4 1013.4
00 22.04 В 1 10 км ясно +11.1 +8.2 82 +11 +11 тепло 1014.6 1012.6
03 22.04 ЮВ 2 50 км ясно +12.7 +8.4 75 +12 +12 тепло 1013.6 1011.6 +9.4
06 22.04 ЮВ 2 20 км 10/6 600 м
[Sc Cc]
+12.6 +9.3 80 +12 +14 по сезону 1013.6 1011.6
09 22.04 ЮВ 5-10
{10}
20 км 10/8 600 м
[Cb cap Ac trans Cc]
+12.9 +9.1 78 +11 +12 по сезону 1013.7 1011.7
12 22.04 ЮВ 4
{10}
20 км 10/10 600 м
[Sc]
+12.7 +8.8 77 +11 +11 по сезону 1013.6 1011.6
15 22.04 ЮВ 3 20 км 10/3 600 м
[Sc Ac As]
+12.7 +8.0 73 +11 +12 по сезону 1013.5 1011.5 +13.5
18 22.04 ЮВ 3 10 км 10/10 600 м
[Sc]
+13.0 +8.1 72 +12 +12 тепло 1014.6 1012.6
21 22.04 В 2 10 км 4/3 600 м
[Sc Cc]
+11.8 +7.3 74 +11 +11 тепло 1014.7 1012.7
00 23.04 В 1 10 км 10/10 600 м
[Sc]
+11.9 +8.2 78 +12 +12 тепло 1014.5 1012.5
03 23.04 В 2 50 км 10/3 600 м
[Sc Ac trans Cc]
+11.5 +8.2 80 +10 +10 по сезону 1014.4 1012.4 +10.8
06 23.04 ЮВ 2 50 км 10/4 600 м
[Cu hum Ci fib]
+14.3 +9.1 71 +14 +18 тепло 1014.6 1012.7
09 23.04 ЮВ 3 50 км 10/6 600 м
[Cu hum Ac trans Ci fib]
+14.8 +10.3 74 +14 +17 тепло 1014.8 1012.9
12 23.04 ЮВ 3 20 км 10/6 600 м
[Cu Sc Ac trans Ci fib]
+14.6 +10.4 76 +14 +16 по сезону 1015.2 1013.3
15 23.04 ЮВ 3 50 км 3/3 1000 м
[Cu hum Ac trans]
+14.3 +10.4 77 +13 +14 тепло 1015.0 1013.1 +15.5
18 23.04 СВ 1 10 км 1/1 1000 м
[Sc]
+11.7 +8.3 80 +12 +12 тепло 1016.8 1014.8
21 23.04 СВ 2 10 км ясно +10.0 +8.1 88 +8 +8 по сезону 1017.2 1015.2
00 24.04 СВ 1 10 км ясно +8.5 +7.4 93 +8 +8 по сезону 1017.6 1015.6
03 24.04 СВ 2 50 км ясно +7.2 +6.5 95 +5 +5 прохладно 1018.6 1016.6 +7.1
06 24.04 З 1 50 км 6/3 600 м
[Sc Ac trans Cc]
+13.7 +9.4 75 +14 +19 тепло 1020.5 1018.5 +7.0
09 24.04 Ю 1 50 км 3/3 600 м
[Cu hum]
+15.3 +10.4 73 +16 +29 опасность
простуды
1020.6 1018.7
12 24.04 Ю 1 50 км ясно +17.5 +9.4 59 +19 +32 опасность
простуды
1020.3 1018.3
15 24.04 ЮЗ 1 50 км 4/0 2000 м
[Ac trans Ci fib]
+16.2 +7.1 55 +17 +18 тепло 1019.2 1017.3 +17.6
18 24.04 В 1 10 км ясно +10.5 +5.3 70 +10 +10 по сезону 1019.2 1017.2
21 24.04 СВ 1 10 км ясно +9.2 +3.5 67 +9 +9 по сезону 1018.5 1016.5
00 25.04 СВ 1 10 км 8/3 600 м
[Sc Ac trans Ci fib]
+10.8 +2.9 58 +11 +11 тепло 1017.9 1015.9
03 25.04 СВ 1 50 км 10/3 1000 м
[Sc Ac cast Ci fib]
+11.9 +13.2 100 +12 +12 тепло 1018.2 1016.2 +8.7
06 25.04 ЮВ 2 50 км 10/10 600 м
[Sc]
+15.8 +5.7 51 +16 +16 тепло 1019.1 1017.2
09 25.04 ЮВ 2 50 км 10/0
[Ac und]
+15.6 +9.1 65 +16 +20 тепло 1019.4 1017.5
12 25.04 ЮВ 2 50 км 8/0
[Ac As]
+17.0 +8.7 58 +17 +22 тепло 1018.5 1016.6
15 25.04 ЮВ 1 50 км ясно +16.2 +8.1 59 +17 +19 тепло 1017.4 1015.5 +17.7
18 25.04 СВ 1 10 км ясно +12.1 +8.3 78 +12 +12 тепло 1017.6 1015.6
21 25.04 ЮЗ 1 10 км ясно +11.9 +4.7 61 +12 +12 тепло 1017.4 1015.4
00 26.04 штиль 0 10 км ясно +9.7 +3.6 66 +9 +9 по сезону 1016.7 1014.7
03 26.04 ЮВ 1 10 км ясно +10.6 +8.0 84 +10 +10 по сезону 1017.0 1015.0 +9.0
06 26.04 Ю 1 50 км ясно +15.8 +10.2 69 +17 +26 тепло 1017.4 1015.5
09 26.04 ЮВ 2 50 км ясно +17.1 +10.8 66 +17 +34 опасность
простуды
1017.6 1015.7
12 26.04 Ю 1 50 км 3/0
[Ci fib]
+18.6 +9.4 55 +20 +33 опасность
простуды
1016.4 1014.5
15 26.04 З 1 50 км ясно +18.3 +9.3 56 +20 +21 тепло 1015.0 1013.1 +19.1

 

Местоположение метеостанции Геленджик (Краснодарский край, Россия): широта 44.57 долгота 38.08 высота над уровнем моря 15 м.

В архиве по умолчанию представлена погода в Геленджике за последнюю неделю. Архивные данные за месяц целиком и за предыдущие месяцы, начиная с января 2011 года, Вы можете получить, выбрав интересующий диапазон дат из раскрывающегося списка и нажав кнопку "Ввод!".


*Определитесь, кто Вы:
робот инопланетянин человек

Внимание! Время в таблицах - всемирное. Для получения местного времени необходимо прибавить поправку, которая в Геленджике равна 3 ч.

Смотрите также архив погоды в соседних городах и на ближайших метеорологических станциях:

Погода в Новороссийске (Краснодарский край, Россия) (25 км)
Погода в Крымске (Краснодарский край, Россия) (39 км)
Погода в Джубге (Краснодарский край, Россия) (57 км)
Погода в Анапе (Краснодарский край, Россия) (72 км)
Погода в Славянске-на-Кубани (Краснодарский край, Россия) (79 км)
Погода в Горячем Ключе (Краснодарский край, Россия) (81 км)
Погода в Краснодаре (Краснодарский край, Россия) (92 км)
Погода в Туапсе (Краснодарский край, Россия) (95 км)
Погода в Горном (Краснодарский край, Россия) (100 км)
Погода в Темрюке (Краснодарский край, Россия) (100 км)

Пояснения к столбцам:

Ветер - указаны скорость ветра в м/с - средняя за 10 мин, порывы в срок и между сроками (в фигурных скобках) и направление, откуда дует ветер: С - северный, СВ - северо-восточный, В - восточный, ЮВ - юго-восточный, Ю - южный, ЮЗ - юго-западный, З - западный, СЗ - северо-западный.
Видимость - горизонтальная дальность видимости в метрах или километрах. При видимости от 1 до 10 км при отсутствии осадков обычно наблюдается дымка, при ухудшении видимости до 1 км и менее - туман. В сухую погоду видимость может ухудшаться дымом, пылью или мглою.
Явления - указаны атмосферные явления, наблюдавшиеся в срок или в последний час перед сроком; фигурными скобками обозначены явления, наблюдавшиеся между сроками (за 1-3 часа до срока); квадратными скобками обозначены град или гололедные отложения с указанием их диаметра в мм.
Облачность - указаны через наклонную черту общая и нижняя облачность в баллах и высота нижней границы облаков в метрах; квадратными скобками обозначены формы облаков: Ci - перистые, Cs - перисто-слоистые, Cc - перисто-кучевые, Ac - высококучевые, As - высокослоистые, Sc - слоисто-кучевые, Ns - слоисто-дождевые, Cu - кучевые, Cb - кучево-дождевые. Подробнее классификацию облаков см. в Атласе облаков (PDF).
T - Температура воздуха - температура, измеренная на высоте 2 м над землей.
Td - Температура точки росы - температура, при понижении до которой содержащийся в воздухе водяной пар достигнет насыщения.
f - Относительная влажность воздуха - влажноcть воздуха, измеренная на высоте 2 м над землей.
Te - Эффективная температура - температура, которую ощущает одетый по сезону человек в тени. Характеристика душности погоды. При расчете учитывается влияние влажности воздуха и скорости ветра на теплоощущения человека.
Tes - Эффективная температура на солнце - температура, которую ощущает человек, с поправкой на солнечный нагрев. Характеристика знойности погоды. Зависит от высоты солнца над горизонтом, облачности и скорости ветра. Ночью, в пасмурную погоду, а также при ветре 12 м/с и более поправка равна нулю.
P - Атмосферное давление - приведенное к уровню моря атмосферное давление.
Po - Атмосферное давление - измеренное на уровне метеостанции атмосферное давление.
Tmin - Минимальная температура - минимум температуры воздуха на высоте 2 м над землей.
Tmax - Максимальная температура - максимум температуры воздуха на высоте 2 м над землей.
R - Количество осадков - Количество выпавших осадков за период времени, мм. При наведении курсора мыши на число - период времени, за который выпало указанное количество осадков.
R24 - Количество осадков - Количество выпавших осадков за 24 часа, мм.
S - Снежный покров - Высота снежного покрова, см. При наведении курсора мыши на число - состояние снежного покрова и степень покрытия местности в баллах.